This is the latest recevied weather packets stored in our database for station/object N3WPH. If no packets are shown the sender has not sent any weather packets the latest 10 day(s).
| Time | Temp. | Humidity | Pressure | Rain* | Wind** | Luminosity | Snow |
|---|---|---|---|---|---|---|---|
| 1777846048 | 14.44° C | 38% | 1010.9 hPa | 0 mm | - | 173 W/m² | - |
| 1777845745 | 14.44° C | 39% | 1010.7 hPa | 0 mm | - | 232 W/m² | - |
| 1777845442 | 14.44° C | 41% | 1010.8 hPa | 0 mm | - | 250 W/m² | - |
| 1777845139 | 14.44° C | 38% | 1010.7 hPa | 0 mm | - | 121 W/m² | - |
| 1777844837 | 13.89° C | 38% | 1011 hPa | 0 mm | - | 233 W/m² | - |
| 1777844533 | 13.89° C | 41% | 1010.9 hPa | 0 mm | - | 115 W/m² | - |
| 1777844232 | 14.44° C | 40% | 1010.8 hPa | 0 mm | - | 145 W/m² | - |
| 1777843928 | 14.44° C | 40% | 1010.7 hPa | 0 mm | - | 307 W/m² | - |
| 1777843625 | 14.44° C | 39% | 1010.7 hPa | 0 mm | - | 180 W/m² | - |
| 1777843323 | 13.89° C | 38% | 1010.4 hPa | 0 mm | - | 315 W/m² | - |
| 1777843021 | 13.89° C | 36% | 1010.5 hPa | 0 mm | - | 135 W/m² | - |
| 1777842716 | 14.44° C | 40% | 1010.4 hPa | 0 mm | - | 131 W/m² | - |
| 1777842412 | 13.89° C | 36% | 1010.6 hPa | 0 mm | - | 238 W/m² | - |
| 1777842109 | 13.89° C | 36% | 1010.6 hPa | 0 mm | - | 205 W/m² | - |
| 1777841804 | 13.89° C | 38% | 1010.4 hPa | 0 mm | - | 154 W/m² | - |
| 1777841501 | 13.89° C | 37% | 1010.4 hPa | 0 mm | - | 433 W/m² | - |
| 1777841198 | 13.89° C | 38% | 1010.6 hPa | 0 mm | - | 195 W/m² | - |
| 1777840895 | 13.89° C | 35% | 1010.6 hPa | 0 mm | - | 186 W/m² | - |
| 1777840592 | 13.89° C | 37% | 1010.5 hPa | 0 mm | - | 153 W/m² | - |
| 1777840290 | 14.44° C | 38% | 1010.4 hPa | 0 mm | - | 247 W/m² | - |
| 1777839987 | 14.44° C | 38% | 1010.5 hPa | 0 mm | - | 219 W/m² | - |
| 1777839685 | 14.44° C | 34% | 1010.4 hPa | 0 mm | - | 259 W/m² | - |
| 1777839383 | 14.44° C | 35% | 1010.5 hPa | 0 mm | - | 198 W/m² | - |
| 1777839080 | 15° C | 36% | 1010.7 hPa | 0 mm | - | 473 W/m² | - |
| 1777838776 | 13.89° C | 36% | 1010.7 hPa | 0 mm | - | 565 W/m² | - |
* Rain latest hour (hover to see other rain measurements)
** Current wind speed in m/s (hover to see current wind gust speed)